• In Hungary
  • List of Countries
  • For 7 days
  • Water Temperature
  • Satellite Maps
  • Weather Map
  • News
  • Weather Widgets
  • user-avatar
    Login

    Hourly Weather Mulhule

    Today, 18 August, Friday

    Time Temperature Precipitation Wind Pressure Humidity
    00:00 +36°C° 0 mm 7 mps 753 mmHg 58%
    01:00 +36°C° 0 mm 7 mps 753 mmHg 59%
    02:00 +36°C° 0 mm 7 mps 753 mmHg 61%
    03:00 +36°C° 0 mm 7 mps 753 mmHg 63%
    04:00 +36°C° 0 mm 7 mps 753 mmHg 64%
    05:00 +35°C° 0 mm 6 mps 753 mmHg 64%
    06:00 +35°C° 0 mm 6 mps 753 mmHg 65%
    07:00 +36°C° 0 mm 6 mps 753 mmHg 59%
    08:00 +38°C° 0 mm 6 mps 754 mmHg 54%
    09:00 +39°C° 0 mm 6 mps 754 mmHg 49%
    10:00 +40°C° 0 mm 6 mps 754 mmHg 44%
    11:00 +42°C° 0 mm 6 mps 753 mmHg 40%
    12:00 +44°C° 0 mm 6 mps 753 mmHg 35%
    13:00 +44°C° 0 mm 6 mps 753 mmHg 34%
    14:00 +44°C° 0 mm 7 mps 752 mmHg 33%
    15:00 +45°C° 0 mm 7 mps 752 mmHg 32%
    16:00 +44°C° 0 mm 8 mps 751 mmHg 34%
    17:00 +43°C° 0 mm 8 mps 751 mmHg 36%
    18:00 +42°C° 0 mm 9 mps 751 mmHg 39%
    19:00 +40°C° 0.1 mm 8 mps 751 mmHg 41%
    20:00 +39°C° 0.1 mm 8 mps 752 mmHg 43%
    21:00 +39°C° 0.1 mm 8 mps 752 mmHg 45%
    22:00 +39°C° 0 mm 8 mps 752 mmHg 46%
    23:00 +38°C° 0 mm 7 mps 752 mmHg 47%

    Tomorrow, 19 August, Saturday

    Time Temperature Precipitation Wind Pressure Humidity
    00:00 +38°C° 0 mm 7 mps 752 mmHg 49%
    01:00 +38°C° 0 mm 7 mps 752 mmHg 50%
    02:00 +36°C° 0 mm 6 mps 752 mmHg 51%
    03:00 +36°C° 0 mm 6 mps 752 mmHg 52%
    04:00 +36°C° 0 mm 5 mps 752 mmHg 53%
    05:00 +36°C° 0 mm 4 mps 752 mmHg 55%
    06:00 +36°C° 0 mm 4 mps 752 mmHg 56%
    07:00 +37°C° 0 mm 4 mps 753 mmHg 51%
    08:00 +38°C° 0 mm 3 mps 753 mmHg 45%
    09:00 +39°C° 0 mm 3 mps 754 mmHg 40%
    10:00 +41°C° 0 mm 4 mps 753 mmHg 36%
    11:00 +42°C° 0 mm 4 mps 753 mmHg 32%
    12:00 +45°C° 0 mm 5 mps 753 mmHg 28%
    13:00 +45°C° 0 mm 5 mps 752 mmHg 27%
    14:00 +45°C° 0 mm 6 mps 751 mmHg 26%
    15:00 +46°C° 0 mm 7 mps 751 mmHg 25%
    16:00 +45°C° 0 mm 7 mps 751 mmHg 27%
    17:00 +44°C° 0 mm 8 mps 750 mmHg 30%
    18:00 +41°C° 0 mm 8 mps 750 mmHg 32%
    19:00 +41°C° 0 mm 7 mps 751 mmHg 35%
    20:00 +40°C° 0 mm 7 mps 751 mmHg 37%
    21:00 +40°C° 0 mm 6 mps 752 mmHg 40%
    22:00 +39°C° 0 mm 6 mps 752 mmHg 41%
    23:00 +39°C° 0 mm 5 mps 752 mmHg 42%

    Day after tomorrow, 20 August, Sunday

    Time Temperature Precipitation Wind Pressure Humidity
    00:00 +39°C° 0 mm 5 mps 752 mmHg 43%
    01:00 +38°C° 0 mm 4 mps 751 mmHg 44%
    02:00 +38°C° 0 mm 4 mps 751 mmHg 45%
    03:00 +37°C° 0 mm 3 mps 751 mmHg 45%
    04:00 +37°C° 0 mm 3 mps 751 mmHg 46%
    05:00 +37°C° 0 mm 2 mps 752 mmHg 48%
    06:00 +37°C° 0 mm 2 mps 752 mmHg 49%
    07:00 +37°C° 0 mm 2 mps 753 mmHg 46%
    08:00 +38°C° 0 mm 3 mps 753 mmHg 44%
    09:00 +39°C° 0 mm 3 mps 754 mmHg 41%
    10:00 +40°C° 0 mm 3 mps 754 mmHg 37%
    11:00 +42°C° 0 mm 3 mps 753 mmHg 34%
    12:00 +43°C° 0 mm 3 mps 753 mmHg 30%
    13:00 +44°C° 0.1 mm 3 mps 752 mmHg 29%
    14:00 +44°C° 0.1 mm 3 mps 752 mmHg 28%
    15:00 +45°C° 0.1 mm 3 mps 751 mmHg 26%
    16:00 +44°C° 0.1 mm 3 mps 751 mmHg 27%
    17:00 +44°C° 0.1 mm 3 mps 750 mmHg 27%
    18:00 +44°C° 0.1 mm 3 mps 750 mmHg 28%
    19:00 +43°C° 0.1 mm 3 mps 751 mmHg 29%
    20:00 +43°C° 0.1 mm 3 mps 751 mmHg 30%
    21:00 +42°C° 0.1 mm 3 mps 752 mmHg 30%
    22:00 +42°C° 0.1 mm 3 mps 752 mmHg 31%
    23:00 +42°C° 0.1 mm 3 mps 752 mmHg 32%

    21 August, Monday

    Time Temperature Precipitation Wind Pressure Humidity
    00:00 +40°C° 0.1 mm 3 mps 752 mmHg 33%
    01:00 +40°C° 0 mm 3 mps 751 mmHg 34%
    02:00 +40°C° 0 mm 3 mps 751 mmHg 35%
    03:00 +39°C° 0 mm 2 mps 751 mmHg 36%
    04:00 +39°C° 0 mm 2 mps 751 mmHg 37%
    05:00 +38°C° 0 mm 2 mps 751 mmHg 39%
    06:00 +38°C° 0 mm 2 mps 752 mmHg 41%
    07:00 +39°C° 0 mm 2 mps 752 mmHg 36%
    08:00 +40°C° 0 mm 2 mps 753 mmHg 32%
    09:00 +41°C° 0 mm 2 mps 754 mmHg 28%
    10:00 +43°C° 0 mm 3 mps 753 mmHg 26%
    11:00 +44°C° 0 mm 3 mps 753 mmHg 25%
    12:00 +45°C° 0 mm 4 mps 752 mmHg 23%
    13:00 +46°C° 0 mm 5 mps 751 mmHg 23%
    14:00 +46°C° 0 mm 5 mps 751 mmHg 23%
    15:00 +47°C° 0 mm 6 mps 750 mmHg 23%
    16:00 +45°C° 0.1 mm 6 mps 750 mmHg 26%
    17:00 +44°C° 0.1 mm 7 mps 750 mmHg 29%
    18:00 +43°C° 0.1 mm 7 mps 750 mmHg 32%
    19:00 +41°C° 0 mm 7 mps 750 mmHg 35%
    20:00 +41°C° 0 mm 7 mps 751 mmHg 38%
    21:00 +40°C° 0 mm 8 mps 751 mmHg 42%
    22:00 +39°C° 0 mm 8 mps 751 mmHg 44%
    23:00 +39°C° 0 mm 8 mps 751 mmHg 47%

    22 August, Tuesday

    Time Temperature Precipitation Wind Pressure Humidity
    00:00 +38°C° 0 mm 8 mps 751 mmHg 49%
    01:00 +38°C° 0 mm 7 mps 750 mmHg 50%
    02:00 +38°C° 0 mm 7 mps 750 mmHg 51%
    03:00 +38°C° 0 mm 7 mps 749 mmHg 51%
    04:00 +38°C° 0 mm 7 mps 750 mmHg 52%
    05:00 +38°C° 0 mm 6 mps 750 mmHg 52%
    06:00 +36°C° 0 mm 6 mps 751 mmHg 53%
    07:00 +39°C° 0 mm 6 mps 751 mmHg 48%
    08:00 +40°C° 0 mm 6 mps 751 mmHg 44%
    09:00 +41°C° 0 mm 6 mps 752 mmHg 39%
    10:00 +42°C° 0 mm 6 mps 751 mmHg 36%
    11:00 +44°C° 0 mm 7 mps 751 mmHg 33%
    12:00 +45°C° 0 mm 8 mps 750 mmHg 30%
    13:00 +45°C° 0 mm 8 mps 749 mmHg 29%
    14:00 +46°C° 0 mm 8 mps 749 mmHg 29%
    15:00 +47°C° 0 mm 9 mps 748 mmHg 28%
    16:00 +45°C° 0 mm 9 mps 748 mmHg 30%
    17:00 +44°C° 0 mm 9 mps 748 mmHg 32%
    18:00 +43°C° 0 mm 9 mps 748 mmHg 33%
    19:00 +42°C° 0 mm 9 mps 748 mmHg 35%
    20:00 +42°C° 0 mm 9 mps 749 mmHg 37%
    21:00 +40°C° 0 mm 8 mps 749 mmHg 39%
    22:00 +40°C° 0 mm 8 mps 749 mmHg 40%
    23:00 +40°C° 0 mm 8 mps 749 mmHg 41%

    23 August, Wednesday

    Time Temperature Precipitation Wind Pressure Humidity
    00:00 +40°C° 0 mm 7 mps 748 mmHg 42%
    01:00 +39°C° 0 mm 7 mps 748 mmHg 42%
    02:00 +39°C° 0 mm 6 mps 748 mmHg 42%
    03:00 +39°C° 0 mm 5 mps 748 mmHg 43%
    04:00 +38°C° 0.1 mm 4 mps 748 mmHg 44%
    05:00 +38°C° 0.1 mm 3 mps 749 mmHg 46%
    06:00 +37°C° 0.1 mm 3 mps 750 mmHg 47%
    07:00 +38°C° 0.1 mm 3 mps 750 mmHg 46%
    08:00 +38°C° 0.1 mm 3 mps 751 mmHg 45%
    09:00 +38°C° 0.1 mm 4 mps 751 mmHg 44%
    10:00 +41°C° 0 mm 4 mps 751 mmHg 40%
    11:00 +42°C° 0 mm 4 mps 750 mmHg 36%
    12:00 +43°C° 0 mm 5 mps 750 mmHg 32%
    13:00 +45°C° 0 mm 5 mps 749 mmHg 30%
    14:00 +45°C° 0 mm 5 mps 749 mmHg 29%
    15:00 +46°C° 0 mm 6 mps 748 mmHg 27%
    16:00 +45°C° 0 mm 6 mps 748 mmHg 28%
    17:00 +45°C° 0 mm 6 mps 748 mmHg 30%
    18:00 +44°C° 0 mm 6 mps 748 mmHg 31%
    19:00 +42°C° 0.1 mm 6 mps 749 mmHg 33%
    20:00 +42°C° 0.1 mm 6 mps 749 mmHg 35%
    21:00 +41°C° 0.1 mm 5 mps 750 mmHg 37%
    22:00 +40°C° 0.2 mm 5 mps 749 mmHg 38%
    23:00 +40°C° 0.2 mm 4 mps 749 mmHg 40%
    Show more